STARLINK-32631, 62235

Orbit data source: Space-Track

STARLINK-32631, 62235 is a payload satellite owned by SpaceX/Seattle (US) in LEO that was launched on Thu, 05 Dec 2024 UTC via an FALCON 9 launch vehicle from the Air Force Western Test Range (AFWTR). Payload-class satellites include a variety of spacecraft equipped with specific instruments for various scientific and technological missions. These include communications satellites like Starlink; space stations such as the ISS; scientific satellites like the Hubble; Earth observation satellites from companies like Planet Labs, Umbra, and HawkEye 360; GPS; miniature CubeSats for education and research; and military/defense satellites.

Loading next visibility...
Identifier
62235, 2024-231T
Orbit
LEO
Country
Flag of USUS
Related business
Manufacturer
SpaceX/Seattle
Mission
Operational Commercial Communications
Bus & Motor
STARLINK V2M, Unknown motor
Mass
730 kg wet, ~700 kg dry
Launch date (UTC)
2024-12-05 (1 year ago)
Launch vehicle
FALCON 9
Launch site
Air Force Western Test Range (AFWTR)
Object type
Payload
Rocket body
Debris
Shape & HBR
Box + 2 Pan, 17.7 m
Radar Cross Section
33.884 m², Large (>1 m²)

Expand to show TLE details & history
Last TLE update: 12 hours ago

TLE from 12 hours ago
0 STARLINK-32631
1 62235U 24231T   25351.86911875  .00017349  00000-0  59642-3 0  9994
2 62235  53.1582 226.7317 0001262  74.9332 285.1808 15.30204446 59411
Epoch: 2025-12-17T20:51Z
TLE epoch observation values (Epoch: 2025-12-17T20:51:31.859Z)
Latitude
-0.00002°
Longitude
-172.88386°
Altitude
475.875 km
Speed
7.629 km/s
True Right ascension
15h 06m 55s
True Declination
0° 00' 00"
Sunlit
Object was in daylight at epoch
Visualization orbit readout
Latitude
Unknown
Longitude
Unknown
Altitude
Unknown
Speed
Unknown
Apparent Right ascension
Unknown
Apparent Declination
Unknown
Sunlit
N/A
Visualization observer readout
Local Sidereal Time
07:35:13
Azimuth
Unknown
Elevation
Unknown
Doppler factor
Unknown
Orbital elements
Apogee altitude
476.323 km
Perigee altitude
474.594 km
Semi-major axis
6,853.596 km
Eccentricity
0.00013
Inclination
53.1582°
RAAN
226.7317°
Arg. of periapsis
74.9332°
True anomaly
285.16684°
Mean anomaly
285.1808°
Eccentric anomaly
285.17382°
Mean motion
3.8253 °/min
Orbital period
94.11 mins
BSTAR
0.00059642
Loading maneuver chart data...
Computing Atmospheric mass density...
Loading historical data...
Loading historical data...
Loading historical data...
Loading historical data...
Loading historical data...
Loading historical data...
Loading historical data...

Documentation

Showing up to 5 results
|